| time (UTC) | temp F | wind direction | speed knots | gust knots | rain 1hr in | rain 24hr in | rain mn in | humidity % | barometer mb |
| 20260510113017 | 64 | 68 | 5.2 | 13.0 | 0.00 | 0.00 | 0.00 | 51 | 1013.8 |
| 20260510111516 | 65 | 23 | 3.5 | 12.2 | 0.00 | 0.00 | 0.00 | 48 | 1014.0 |
| 20260510110016 | 64 | 68 | 4.3 | 14.8 | 0.00 | 0.00 | 0.00 | 50 | 1014.1 |
| 20260510104516 | 65 | 23 | 3.5 | 12.2 | 0.00 | 0.00 | 0.00 | 48 | 1014.2 |
| 20260510103016 | 64 | 68 | 3.5 | 12.2 | 0.00 | 0.00 | 0.00 | 50 | 1014.3 |
| 20260510101516 | 64 | 23 | 3.5 | 10.4 | 0.00 | 0.00 | 0.00 | 50 | 1014.5 |
| 20260510100017 | 64 | 45 | 4.3 | 13.9 | 0.00 | 0.00 | 0.00 | 52 | 1014.6 |
| 20260510094516 | 63 | 68 | 4.3 | 12.2 | 0.00 | 0.00 | 0.00 | 56 | 1014.7 |
| 20260510093016 | 63 | 23 | 4.3 | 13.9 | 0.00 | 0.00 | 0.00 | 58 | 1014.8 |
| 20260510091516 | 62 | 68 | 4.3 | 12.2 | 0.00 | 0.00 | 0.00 | 57 | 1014.9 |
| 20260510090037 | 61 | 45 | 4.3 | 12.2 | 0.00 | 0.00 | 0.00 | 60 | 1014.9 |
| 20260510084517 | 60 | 45 | 3.5 | 12.2 | 0.00 | 0.00 | 0.00 | 60 | 1015.1 |
| 20260510083017 | 60 | 68 | 1.7 | 9.6 | 0.00 | 0.00 | 0.00 | 60 | 1015.1 |
| 20260510081516 | 61 | 23 | 3.5 | 13.0 | 0.00 | 0.00 | 0.00 | 61 | 1015.2 |
| 20260510080016 | 60 | 68 | 3.5 | 11.3 | 0.00 | 0.00 | 0.00 | 62 | 1015.4 |
| 20260510074516 | 60 | 68 | 2.6 | 8.7 | 0.00 | 0.00 | 0.00 | 62 | 1015.5 |
| 20260510073016 | 59 | 45 | 3.5 | 12.2 | 0.00 | 0.00 | 0.00 | 66 | 1015.5 |
| 20260510071516 | 58 | 45 | 2.6 | 9.6 | 0.00 | 0.00 | 0.00 | 66 | 1015.4 |
| 20260510070017 | 57 | 68 | 4.3 | 12.2 | 0.00 | 0.00 | 0.00 | 71 | 1015.4 |
| 20260510064517 | 57 | 68 | 4.3 | 15.6 | 0.00 | 0.00 | 0.00 | 72 | 1015.4 |
| 20260510063036 | 56 | 68 | 2.6 | 9.6 | 0.00 | 0.00 | 0.00 | 77 | 1015.5 |
| 20260510061516 | 54 | 45 | 2.6 | 13.0 | 0.00 | 0.00 | 0.00 | 78 | 1015.5 |
| 20260510060016 | 53 | 45 | 2.6 | 8.7 | 0.00 | 0.00 | 0.00 | 83 | 1015.5 |
| 20260510054516 | 51 | 68 | 1.7 | 8.7 | 0.00 | 0.00 | 0.00 | 85 | 1015.6 |
| 20260510053036 | 51 | 45 | 1.7 | 8.7 | 0.00 | 0.00 | 0.00 | 86 | 1015.5 |
| 20260510051536 | 50 | 23 | 0.9 | 5.2 | 0.00 | 0.00 | 0.00 | 87 | 1015.4 |
| 20260510050036 | 50 | 23 | 0.9 | 6.1 | 0.00 | 0.00 | 0.00 | 87 | 1015.4 |
| 20260510044536 | 50 | 23 | 0.9 | 4.3 | 0.00 | 0.00 | 0.00 | 87 | 1015.3 |
| 20260510043036 | 50 | 0.0 | 3.5 | 0.00 | 0.00 | 0.00 | 87 | 1015.5 | |
| 20260510041516 | 49 | 0.0 | 7.0 | 0.00 | 0.00 | 0.00 | 87 | 1015.5 | |
| 20260510040017 | 49 | 0.0 | 7.0 | 0.00 | 0.00 | 0.00 | 87 | 1015.5 | |
| 20260510034536 | 50 | 0.0 | 2.6 | 0.00 | 0.00 | 0.00 | 88 | 1015.4 | |
| 20260510033016 | 50 | 0.0 | 1.7 | 0.00 | 0.00 | 0.00 | 88 | 1015.5 | |
| 20260510031516 | 50 | 0.0 | 2.6 | 0.00 | 0.00 | 0.00 | 88 | 1015.5 | |
| 20260510030016 | 50 | 0.0 | 3.5 | 0.00 | 0.00 | 0.00 | 88 | 1015.4 | |
| 20260510024516 | 50 | 0.0 | 1.7 | 0.00 | 0.00 | 0.00 | 88 | 1015.5 | |
| 20260510023016 | 51 | 0.0 | 0.9 | 0.00 | 0.00 | 0.00 | 87 | 1015.6 | |
| 20260510021516 | 51 | 0.0 | 0.9 | 0.00 | 0.00 | 0.00 | 87 | 1015.6 | |
| 20260510020016 | 51 | 0.0 | 3.5 | 0.00 | 0.00 | 0.00 | 87 | 1015.6 | |
| 20260510014516 | 51 | 0.0 | 2.6 | 0.00 | 0.00 | 0.00 | 86 | 1015.7 | |
| 20260510013016 | 52 | 0.0 | 2.6 | 0.00 | 0.00 | 0.00 | 86 | 1015.9 | |
| 20260510011516 | 52 | 0.0 | 3.5 | 0.00 | 0.00 | 0.00 | 85 | 1015.9 | |
| 20260510010016 | 52 | 0.0 | 3.5 | 0.00 | 0.00 | 0.00 | 85 | 1015.8 | |
| 20260510004516 | 51 | 0.0 | 3.5 | 0.00 | 0.00 | 0.00 | 85 | 1015.8 | |
| 20260510003016 | 51 | 0.0 | 3.5 | 0.00 | 0.00 | 0.00 | 84 | 1016.0 | |
| 20260510001516 | 52 | 0.0 | 3.5 | 0.00 | 0.00 | 0.00 | 83 | 1016.1 | |
| 20260510000016 | 52 | 0.0 | 2.6 | 0.00 | 0.00 | 0.00 | 82 | 1016.2 | |
| 20260509234516 | 52 | 0.0 | 1.7 | 0.00 | 0.00 | 0.00 | 81 | 1016.3 | |
| 20260509233016 | 52 | 0.0 | 0.9 | 0.00 | 0.00 | 0.00 | 80 | 1016.3 | |
| 20260509231516 | 52 | 0.0 | 1.7 | 0.00 | 0.00 | 0.00 | 78 | 1016.3 | |
| 20260509230016 | 53 | 0.0 | 0.9 | 0.00 | 0.00 | 0.00 | 77 | 1016.2 | |
| 20260509224516 | 53 | 0.0 | 2.6 | 0.00 | 0.00 | 0.00 | 76 | 1016.3 | |
| 20260509223056 | 54 | 0.0 | 0.9 | 0.00 | 0.00 | 0.00 | 75 | 1016.3 | |
| 20260509221516 | 54 | 0.0 | 0.9 | 0.00 | 0.00 | 0.00 | 74 | 1016.2 | |
| 20260509220018 | 54 | 0.0 | 1.7 | 0.00 | 0.00 | 0.00 | 73 | 1016.1 | |
| 20260509214516 | 54 | 0.0 | 0.9 | 0.00 | 0.00 | 0.00 | 72 | 1016.1 | |
| 20260509213037 | 55 | 0.0 | 1.7 | 0.00 | 0.00 | 0.00 | 70 | 1016.1 | |
| 20260509211517 | 56 | 0.0 | 0.0 | 0.00 | 0.00 | 0.00 | 68 | 1016.1 | |
| 20260509210017 | 57 | 0.0 | 0.0 | 0.00 | 0.00 | 0.00 | 67 | 1016.0 | |
| 20260509204537 | 58 | 0.0 | 0.9 | 0.00 | 0.00 | 0.00 | 65 | 1016.0 | |
| 20260509203017 | 59 | 0.0 | 0.9 | 0.00 | 0.00 | 0.00 | 63 | 1016.0 | |
| 20260509201517 | 59 | 0.0 | 4.3 | 0.00 | 0.00 | 0.00 | 61 | 1016.0 | |
| 20260509200017 | 60 | 0.0 | 2.6 | 0.00 | 0.00 | 0.00 | 61 | 1016.0 | |
| 20260509194516 | 61 | 0.0 | 2.6 | 0.00 | 0.00 | 0.00 | 59 | 1015.8 | |
| 20260509193036 | 61 | 0.0 | 1.7 | 0.00 | 0.00 | 0.00 | 59 | 1015.9 | |
| 20260509191516 | 62 | 0.0 | 0.9 | 0.00 | 0.00 | 0.00 | 58 | 1015.8 | |
| 20260509190037 | 63 | 0.0 | 0.9 | 0.00 | 0.00 | 0.00 | 56 | 1015.7 | |
| 20260509184517 | 64 | 0.0 | 0.9 | 0.00 | 0.00 | 0.00 | 54 | 1015.7 | |
| 20260509183017 | 65 | 0.0 | 5.2 | 0.00 | 0.00 | 0.00 | 51 | 1015.6 | |
| 20260509181517 | 66 | 0.0 | 4.3 | 0.00 | 0.00 | 0.00 | 50 | 1015.5 | |
| 20260509180017 | 67 | 0.0 | 3.5 | 0.00 | 0.00 | 0.00 | 48 | 1015.4 | |
| 20260509174517 | 68 | 0.0 | 3.5 | 0.00 | 0.00 | 0.00 | 46 | 1015.3 | |
| 20260509173017 | 69 | 23 | 0.9 | 7.0 | 0.00 | 0.00 | 0.00 | 46 | 1015.3 |
| 20260509171516 | 69 | 23 | 0.9 | 4.3 | 0.00 | 0.00 | 0.00 | 46 | 1015.3 |
| 20260509170016 | 70 | 0 | 0.9 | 4.3 | 0.00 | 0.00 | 0.00 | 45 | 1015.5 |
| 20260509164536 | 71 | 23 | 0.9 | 6.1 | 0.00 | 0.00 | 0.00 | 43 | 1015.5 |
| 20260509163016 | 71 | 23 | 0.9 | 3.5 | 0.00 | 0.00 | 0.00 | 44 | 1015.5 |
| 20260509161516 | 71 | 23 | 0.9 | 10.4 | 0.00 | 0.00 | 0.00 | 44 | 1015.4 |
| 20260509160017 | 72 | 45 | 0.9 | 7.0 | 0.00 | 0.00 | 0.00 | 41 | 1015.4 |
| 20260509154516 | 71 | 0.0 | 4.3 | 0.00 | 0.00 | 0.00 | 42 | 1015.5 | |
| 20260509153016 | 71 | 90 | 0.9 | 7.0 | 0.00 | 0.00 | 0.00 | 43 | 1015.5 |
| 20260509151536 | 71 | 68 | 0.9 | 6.1 | 0.00 | 0.00 | 0.00 | 42 | 1015.5 |
| 20260509150016 | 71 | 68 | 0.9 | 7.8 | 0.00 | 0.00 | 0.00 | 43 | 1015.6 |
| 20260509144517 | 71 | 113 | 1.7 | 12.2 | 0.00 | 0.00 | 0.00 | 44 | 1015.6 |
| 20260509143016 | 70 | 68 | 0.9 | 4.3 | 0.00 | 0.00 | 0.00 | 44 | 1015.8 |
| 20260509141516 | 70 | 68 | 1.7 | 7.8 | 0.00 | 0.00 | 0.00 | 45 | 1015.9 |
| 20260509140016 | 71 | 0 | 0.9 | 5.2 | 0.00 | 0.00 | 0.00 | 42 | 1016.0 |
| 20260509134516 | 71 | 68 | 1.7 | 7.0 | 0.00 | 0.00 | 0.00 | 44 | 1016.2 |
| 20260509133016 | 70 | 135 | 0.9 | 9.6 | 0.00 | 0.00 | 0.00 | 45 | 1016.4 |
| 20260509131536 | 72 | 68 | 1.7 | 9.6 | 0.00 | 0.00 | 0.00 | 41 | 1016.5 |
| 20260509130016 | 71 | 270 | 0.9 | 5.2 | 0.00 | 0.00 | 0.00 | 45 | 1016.6 |
| 20260509124516 | 70 | 45 | 0.9 | 6.1 | 0.00 | 0.00 | 0.00 | 46 | 1016.9 |
| 20260509123016 | 70 | 338 | 0.9 | 4.3 | 0.00 | 0.00 | 0.00 | 45 | 1017.0 |
| 20260509121516 | 70 | 90 | 1.7 | 6.1 | 0.00 | 0.00 | 0.00 | 45 | 1017.1 |
| 20260509120016 | 69 | 68 | 1.7 | 6.1 | 0.00 | 0.00 | 0.00 | 46 | 1017.3 |
| 20260509114656 | 70 | 135 | 0.9 | 7.0 | 0.00 | 0.00 | 0.00 | 44 | 1017.5 |